When you browse on this site, cookies collect data to enhance your experience and personalize the content and advertising you see.
Visit our Privacy Policy to learn more. By continuing to use the site, you agree to this use of cookies and data.

Stündliche Wetter La-Plata

Heute, 12 Juli, Sonntag

Zeit Temperatur Niederschläge Wind Luftdruck Luftfeuchtigkeit
00:00 +10°C° 0 mm 3 m/S 757 mmHg 46%
01:00 +9°C° 0 mm 3 m/S 757 mmHg 45%
02:00 +9°C° 0 mm 3 m/S 757 mmHg 42%
03:00 +9°C° 0 mm 3 m/S 757 mmHg 46%
04:00 +8°C° 0 mm 3 m/S 756 mmHg 51%
05:00 +8°C° 0 mm 3 m/S 756 mmHg 55%
06:00 +7°C° 0 mm 3 m/S 757 mmHg 57%
07:00 +6°C° 0 mm 4 m/S 758 mmHg 60%
08:00 +5°C° 0 mm 5 m/S 758 mmHg 62%
09:00 +7°C° 0 mm 5 m/S 758 mmHg 56%
10:00 +8°C° 0 mm 5 m/S 758 mmHg 50%
11:00 +9°C° 0 mm 6 m/S 758 mmHg 44%
12:00 +10°C° 0 mm 6 m/S 758 mmHg 41%
13:00 +11°C° 0 mm 6 m/S 758 mmHg 38%
14:00 +13°C° 0 mm 6 m/S 758 mmHg 35%
15:00 +10°C° 0 mm 6 m/S 758 mmHg 39%
16:00 +9°C° 0 mm 6 m/S 758 mmHg 43%
17:00 +8°C° 0 mm 5 m/S 758 mmHg 47%
18:00 +7°C° 0 mm 5 m/S 759 mmHg 48%
19:00 +7°C° 0 mm 5 m/S 759 mmHg 48%
20:00 +7°C° 0 mm 4 m/S 760 mmHg 49%
21:00 +6°C° 0 mm 4 m/S 760 mmHg 50%
22:00 +6°C° 0 mm 4 m/S 760 mmHg 51%
23:00 +6°C° 0 mm 4 m/S 760 mmHg 52%

Morgen, 13 Juli, Montag

Zeit Temperatur Niederschläge Wind Luftdruck Luftfeuchtigkeit
00:00 +6°C° 0 mm 4 m/S 760 mmHg 54%
01:00 +5°C° 0 mm 4 m/S 761 mmHg 55%
02:00 +5°C° 0 mm 5 m/S 761 mmHg 57%
03:00 +5°C° 0 mm 4 m/S 761 mmHg 59%
04:00 +4°C° 0 mm 4 m/S 761 mmHg 61%
05:00 +4°C° 0 mm 4 m/S 761 mmHg 63%
06:00 +4°C° 0 mm 4 m/S 762 mmHg 66%
07:00 +4°C° 0 mm 4 m/S 762 mmHg 68%
08:00 +3°C° 0 mm 5 m/S 763 mmHg 70%
09:00 +6°C° 0 mm 5 m/S 763 mmHg 60%
10:00 +7°C° 0 mm 5 m/S 764 mmHg 51%
11:00 +8°C° 0 mm 6 m/S 764 mmHg 41%
12:00 +8°C° 0 mm 6 m/S 764 mmHg 39%
13:00 +9°C° 0 mm 6 m/S 764 mmHg 38%
14:00 +9°C° 0 mm 6 m/S 763 mmHg 36%
15:00 +8°C° 0 mm 6 m/S 764 mmHg 40%
16:00 +7°C° 0 mm 5 m/S 764 mmHg 44%
17:00 +6°C° 0 mm 5 m/S 764 mmHg 48%
18:00 +5°C° 0 mm 5 m/S 765 mmHg 49%
19:00 +4°C° 0 mm 4 m/S 765 mmHg 51%
20:00 +4°C° 0 mm 4 m/S 765 mmHg 52%
21:00 +3°C° 0 mm 4 m/S 766 mmHg 53%
22:00 +3°C° 0 mm 4 m/S 766 mmHg 53%
23:00 +3°C° 0 mm 4 m/S 766 mmHg 53%

übermorgen, 14 Juli, Dienstag

Zeit Temperatur Niederschläge Wind Luftdruck Luftfeuchtigkeit
00:00 +1°C° 0 mm 4 m/S 766 mmHg 54%
01:00 +1°C° 0 mm 4 m/S 766 mmHg 54%
02:00 +1°C° 0 mm 4 m/S 766 mmHg 54%
03:00 +1°C° 0 mm 4 m/S 766 mmHg 55%
04:00 0°C° 0 mm 4 m/S 766 mmHg 57%
05:00 0°C° 0 mm 5 m/S 766 mmHg 58%
06:00 0°C° 0 mm 4 m/S 766 mmHg 57%
07:00 0°C° 0 mm 4 m/S 767 mmHg 56%
08:00 0°C° 0 mm 4 m/S 767 mmHg 54%
09:00 +3°C° 0 mm 4 m/S 767 mmHg 50%
10:00 +5°C° 0 mm 3 m/S 768 mmHg 46%
11:00 +8°C° 0 mm 3 m/S 768 mmHg 42%
12:00 +9°C° 0 mm 3 m/S 767 mmHg 41%
13:00 +10°C° 0 mm 3 m/S 767 mmHg 40%
14:00 +10°C° 0 mm 3 m/S 766 mmHg 39%
15:00 +9°C° 0 mm 2 m/S 766 mmHg 43%
16:00 +8°C° 0 mm 2 m/S 766 mmHg 47%
17:00 +7°C° 0 mm 2 m/S 766 mmHg 51%
18:00 +7°C° 0 mm 1 m/S 766 mmHg 52%
19:00 +6°C° 0 mm 1 m/S 766 mmHg 53%
20:00 +6°C° 0 mm 1 m/S 766 mmHg 55%
21:00 +6°C° 0 mm 1 m/S 766 mmHg 54%
22:00 +5°C° 0 mm 0 m/S 767 mmHg 54%
23:00 +4°C° 0 mm 0 m/S 767 mmHg 54%

15 Juli, Mittwoch

Zeit Temperatur Niederschläge Wind Luftdruck Luftfeuchtigkeit
00:00 +5°C° 0 mm 1 m/S 766 mmHg 54%
01:00 +5°C° 0 mm 1 m/S 766 mmHg 55%
02:00 +4°C° 0 mm 2 m/S 766 mmHg 56%
03:00 +4°C° 0 mm 2 m/S 766 mmHg 58%
04:00 +5°C° 0 mm 2 m/S 766 mmHg 61%
05:00 +4°C° 0 mm 3 m/S 766 mmHg 64%
06:00 +4°C° 0 mm 3 m/S 766 mmHg 63%
07:00 +4°C° 0 mm 3 m/S 766 mmHg 63%
08:00 +5°C° 0 mm 3 m/S 766 mmHg 63%
09:00 +7°C° 0 mm 3 m/S 766 mmHg 58%
10:00 +9°C° 0 mm 3 m/S 766 mmHg 53%
11:00 +10°C° 0 mm 4 m/S 766 mmHg 48%
12:00 +10°C° 0 mm 4 m/S 765 mmHg 46%
13:00 +11°C° 0 mm 4 m/S 765 mmHg 45%
14:00 +11°C° 0 mm 4 m/S 764 mmHg 44%
15:00 +10°C° 0 mm 3 m/S 764 mmHg 49%
16:00 +9°C° 0 mm 3 m/S 764 mmHg 53%
17:00 +8°C° 0 mm 3 m/S 764 mmHg 58%
18:00 +8°C° 0 mm 3 m/S 764 mmHg 62%
19:00 +8°C° 0 mm 3 m/S 764 mmHg 66%
20:00 +8°C° 0 mm 3 m/S 764 mmHg 70%
21:00 +6°C° 0 mm 4 m/S 764 mmHg 71%
22:00 +6°C° 0 mm 4 m/S 764 mmHg 71%
23:00 +6°C° 0 mm 4 m/S 764 mmHg 72%

16 Juli, Donnerstag

Zeit Temperatur Niederschläge Wind Luftdruck Luftfeuchtigkeit
00:00 +6°C° 0 mm 4 m/S 764 mmHg 73%
01:00 +5°C° 0 mm 3 m/S 764 mmHg 74%
02:00 +6°C° 0 mm 2 m/S 764 mmHg 76%
03:00 +5°C° 0 mm 2 m/S 764 mmHg 77%
04:00 +6°C° 0 mm 1 m/S 764 mmHg 78%
05:00 +6°C° 0 mm 1 m/S 763 mmHg 79%
06:00 +6°C° 0 mm 1 m/S 764 mmHg 78%
07:00 +7°C° 0 mm 1 m/S 764 mmHg 77%
08:00 +7°C° 0 mm 1 m/S 764 mmHg 76%
09:00 +9°C° 0 mm 1 m/S 764 mmHg 69%
10:00 +10°C° 0 mm 2 m/S 764 mmHg 62%
11:00 +12°C° 0 mm 2 m/S 764 mmHg 55%
12:00 +13°C° 0 mm 2 m/S 764 mmHg 54%
13:00 +12°C° 0 mm 3 m/S 763 mmHg 53%
14:00 +12°C° 0 mm 3 m/S 762 mmHg 52%
15:00 +11°C° 0 mm 3 m/S 762 mmHg 57%
16:00 +10°C° 0 mm 3 m/S 762 mmHg 62%
17:00 +8°C° 0 mm 3 m/S 762 mmHg 67%
18:00 +8°C° 0 mm 3 m/S 762 mmHg 70%
19:00 +7°C° 0 mm 4 m/S 763 mmHg 73%
20:00 +6°C° 0 mm 4 m/S 763 mmHg 76%
21:00 +7°C° 0 mm 4 m/S 762 mmHg 79%
22:00 +7°C° 0 mm 4 m/S 762 mmHg 82%
23:00 +7°C° 0 mm 4 m/S 762 mmHg 85%

17 Juli, Freitag

Zeit Temperatur Niederschläge Wind Luftdruck Luftfeuchtigkeit
00:00 +7°C° 0 mm 4 m/S 762 mmHg 87%
01:00 +7°C° 0 mm 4 m/S 762 mmHg 89%
02:00 +7°C° 0 mm 4 m/S 761 mmHg 91%
03:00 +7°C° 0 mm 4 m/S 761 mmHg 93%
04:00 +7°C° 0 mm 4 m/S 761 mmHg 94%
05:00 +7°C° 0 mm 4 m/S 761 mmHg 95%
06:00 +7°C° 0 mm 4 m/S 760 mmHg 95%
07:00 +8°C° 0 mm 4 m/S 760 mmHg 94%
08:00 +8°C° 0 mm 5 m/S 760 mmHg 94%
09:00 +10°C° 0 mm 4 m/S 760 mmHg 91%
10:00 +11°C° 0 mm 4 m/S 760 mmHg 88%
11:00 +12°C° 0 mm 4 m/S 760 mmHg 85%
12:00 +12°C° 0 mm 4 m/S 759 mmHg 85%
13:00 +13°C° 0 mm 4 m/S 758 mmHg 84%
14:00 +13°C° 0 mm 4 m/S 758 mmHg 84%
15:00 +13°C° 0 mm 4 m/S 757 mmHg 87%
16:00 +13°C° 0 mm 4 m/S 757 mmHg 90%
17:00 +12°C° 0 mm 4 m/S 757 mmHg 93%
18:00 +12°C° 0.3 mm 4 m/S 757 mmHg 94%
19:00 +13°C° 0.3 mm 4 m/S 757 mmHg 95%
20:00 +13°C° 0.3 mm 4 m/S 756 mmHg 97%
21:00 +13°C° 0 mm 3 m/S 757 mmHg 97%
22:00 +13°C° 0 mm 3 m/S 757 mmHg 97%
23:00 +14°C° 0 mm 2 m/S 757 mmHg 98%
Mehr zeigen